• Processing (Info)

  • MPEC 2022-S96 : 2015 VW

    The following Minor Planet Electronic Circular may be linked-to from your own Web pages, but must not otherwise be redistributed electronically.

    A form allowing access to any MPEC is at the bottom of this page.


    Read MPEC 2022-S95 Read MPEC 2022-S97


    M.P.E.C. 2022-S96                            Issued 2022 September 20, 19:15 UT
    
         The Minor Planet Electronic Circulars contain information on unusual
             minor planets and routine data on comets.  They are published
        on behalf of Division F of the International Astronomical Union by the
              Minor Planet Center, Smithsonian Astrophysical Observatory,
                              Cambridge, MA 02138, U.S.A.
    
                 Prepared using the Tamkin Foundation Computer Network
    
                                  MPC@CFA.HARVARD.EDU
                URL https://www.minorplanetcenter.net/    ISSN 1523-6714
    
                                     2015 VW                                 
    
    
                               Revision to MPEC 2015-V22                            
    
    Additional Observations:
         K15V00W  C2022 09 14.56660004 26 06.834-17 09 47.42         21.55GVES096F51
         K15V00W  C2022 09 14.57864704 26 06.546-17 09 19.22         21.41GVES096F51
         K15V00W  C2022 09 14.60196304 26 05.981-17 08 24.83         21.90GVES096F51
         K15V00W  C2022 09 20.54897604 23 15.749-13 00 56.10         21.30wUES096F52
         K15V00W  C2022 09 20.56108204 23 15.118-13 00 24.25         21.29wUES096F52
         K15V00W  C2022 09 20.57324104 23 14.527-12 59 51.82         21.34wUES096F52
    
    Observer details:
    F51 Pan-STARRS 1, Haleakala.  Observers J. Bulger, K. Chambers, T. Lowe, A.
        Schultz, I. Smith.  Measurers S. Chastel, J. Fairlamb, M. Huber, Y.
        Ramanjooloo, R. Wainscoat, R. Weryk.  1.8-m Ritchey-Chretien + CCD.
    F52 Pan-STARRS 2, Haleakala.  Observers J. Bulger, T. Lowe, A. Schultz, I.
        Smith.  Measurers K. Chambers, S. Chastel, T. de Boer, J. Fairlamb, H.
        Gao, M. Huber, C.-C. Lin, E. Magnier, Y. Ramanjooloo, R. Wainscoat, R.
        Weryk.  1.8-m Ritchey-Chretien + CCD.
    
    First and last observations above in comparison with prediction:
    Residuals in seconds of arc (or two decimals in degrees), reference and Delta-T
    220914 F51 0.05+ 0.20+    220920 F52 0.07+ 0.21+    MPO369279   +0.10 days
    
    Orbital elements:
    2015 VW                                                  Earth MOID = 0.2723 AU
    Epoch 2022 Aug. 9.0 TT = JDT 2459800.5                  Veres                   
    M 357.77883              (2000.0)            P               Q                  
    n   0.42521308     Peri.  301.57251     +0.86570265     +0.43743943             
    a   1.7514523      Node    34.31497     -0.16530871     +0.70867409             
    e   0.3418202      Incl.   25.57040     -0.47247428     +0.55355919             
    P   2.32           H   20.93          G   0.15           U   1                  
    Residuals in seconds of arc
    151101 G45  0.4-  0.2+    151104 H21  0.0   0.1-    151110 H21  1.1+  0.4+
    151101 G45  0.1-  0.2-    151104 H21  0.1-  0.1-    151111 H21  0.1+  0.0
    151101 G45  0.1-  0.2-    151104 H21  0.3+  0.1+    151111 H21  0.1-  0.2+
    151101 G45  0.7-  0.7-    151104 H21  0.5+  0.8+    151111 H21  0.1+  0.3+
    151102 H21  0.7-  0.5+    151104 H21  0.5+  0.4+    151111 H21  0.2+  0.3+
    151102 H21  0.7-  0.2+    151104 300  0.9+  0.6-    151112 291  0.3-  0.1-
    151102 H21  0.2-  0.0     151104 300  0.8+  0.0     151112 291  0.6+  0.4-
    151102 H36  0.7-  1.3+    151104 300  1.1+  0.8+    151112 291  0.3-  0.0
    151102 H36  0.6+  0.2-    151104 300  0.3+  0.1+    151117 926  0.1+  0.4-
    151102 H36  0.8+  1.0-    151104 300  0.1+  0.8+    151117 926  0.0   0.1-
    151102 D29  0.4-  0.1-    151105 H21  0.6-  0.1+    151117 926  0.4-  0.2-
    151102 D29  0.4-  0.2+    151105 H21  0.3-  0.4+    151117 568  0.3-  0.1-
    151102 D29  0.1+  0.7-    151105 H21  0.2-  0.3+    151130 291  0.0   0.2+
    151103 H36  0.6-  0.6+    151107 F51  0.0   0.2+    151130 291  0.0   0.1+
    151103 691  0.0   0.4-    151107 F51  0.1-  0.1+    151130 291  0.2+  0.4+
    151103 H36  0.0   0.2+    151107 F51  0.1-  0.1+    151202 H21  0.5-  0.4-
    151103 691  0.5+  0.3-    151108 H21  0.2-  0.1+    151202 H21  0.3-  0.4-
    151103 691  0.1+  0.4-    151108 H21  0.3-  0.0     151202 H21  0.2-  0.1-
    151103 H36  0.4+  0.2-    151108 H21  0.0   0.0     220914 F51  0.0   0.2-
    151103 926  0.1-  0.1-    151109 H21  0.5+  0.1-    220914 F51  0.0   0.1-
    151103 926  0.2-  0.3-    151109 H21  0.2+  0.0     220914 F51  0.0   0.1-
    151103 926  0.0   0.5-    151109 H21  0.4+  0.1+    220920 F52  0.1+  0.1+
    151103 K51  0.1-  0.0     151110 H21  1.1+  0.6+    220920 F52  0.2-  0.1-
    151103 K51  0.0   0.1-    151110 H21  0.9+  0.3+    220920 F52  0.1+  0.2+
    151103 K51  0.5-  0.6-    151110 H21  1.1+  0.3+
    
    Ephemeris:
    2015 VW                  a,e,i = 1.75, 0.34, 26                  q = 1.1528
    Date    TT    R. A. (2000) Decl.     Delta      r    Elong.  Phase     V
    2022 08 21    04 15 42.4 -30 15 38   0.5106  1.1545    92.7    61.1    22.0
    ...
    2022 09 05    04 25 49.1 -22 51 35   0.4547  1.1705    99.2    58.3    21.7
    ...
    2022 09 13    04 26 26.3 -18 09 54   0.4222  1.1856   104.6    55.2    21.4
    ...
    2022 09 19    04 24 14.7 -14 08 14   0.3979  1.1996   109.8    52.0    21.2
    2022 09 20    04 23 37.5 -13 24 56   0.3939  1.2021   110.8    51.4    21.2
    2022 09 21    04 22 55.7 -12 40 42   0.3900  1.2047   111.8    50.7    21.2
    ...
    2022 09 27    04 16 59.8 -07 54 09   0.3678  1.2215   118.5    46.2    20.9
    ...
    2022 10 05    04 03 55.5 -00 32 02   0.3439  1.2468   129.3    38.4    20.6
    ...
    2022 10 20    03 22 40.6 +15 21 03   0.3317  1.3019   153.8    19.7    20.1
    
    A. U. Tomatic                (C) Copyright 2022 MPC           M.P.E.C. 2022-S96
    


    Read MPEC 2022-S95 Read MPEC 2022-S97


    MPEC number:

    Enter an MPEC number in one of the following forms:

    • 1997-B01 (the full form)
    • J97B01 (the packed version of the full form)
    • B01 (the abbreviated form)